Time,TemperatureF,DewpointF,PressureIn,WindDirection,WindDirectionDegrees,WindSpeedMPH,WindSpeedGustMPH,Humidity,HourlyPrecipIn,Conditions,Clouds,dailyrainin,SoftwareType,DateUTC
2013-01-19 00:04:00,33.1,30.6,29.57,East,90,11.0,25.0,90,0.00,,,0.00,meteohub,2013-01-19 00:04:00,
2013-01-19 00:09:00,33.1,30.6,29.57,East,90,12.0,25.0,90,0.00,,,0.00,meteohub,2013-01-19 00:09:00,
2013-01-19 00:14:00,33.3,30.4,29.57,ESE,112,15.0,20.0,89,0.00,,,0.00,meteohub,2013-01-19 00:14:00,
2013-01-19 00:19:00,33.3,30.4,29.57,East,90,12.0,20.0,89,0.00,,,0.00,meteohub,2013-01-19 00:19:00,
2013-01-19 00:24:00,33.4,30.2,29.57,East,90,13.0,21.0,88,0.00,,,0.00,meteohub,2013-01-19 00:24:00,
2013-01-19 00:29:00,33.4,30.2,29.57,East,90,15.0,21.0,88,0.00,,,0.00,meteohub,2013-01-19 00:29:00,
2013-01-19 00:35:00,33.6,30.2,29.57,East,90,13.0,21.0,87,0.00,,,0.00,meteohub,2013-01-19 00:35:00,
2013-01-19 00:40:00,33.6,29.8,29.57,East,90,21.0,21.0,86,0.00,,,0.00,meteohub,2013-01-19 00:40:00,
2013-01-19 00:45:00,33.8,29.5,29.57,ESE,112,12.0,21.0,84,0.00,,,0.00,meteohub,2013-01-19 00:45:00,
2013-01-19 00:50:00,33.8,29.5,29.57,East,90,21.0,23.0,84,0.00,,,0.00,meteohub,2013-01-19 00:50:00,
2013-01-19 00:55:00,34.0,29.3,29.57,SE,135,15.0,23.0,83,0.00,,,0.00,meteohub,2013-01-19 00:55:00,
2013-01-19 01:02:00,34.0,29.1,29.57,East,90,10.0,23.0,82,0.00,,,0.00,meteohub,2013-01-19 01:02:00,
2013-01-19 01:07:00,34.0,28.8,29.57,East,90,19.0,23.0,81,0.00,,,0.00,meteohub,2013-01-19 01:07:00,
2013-01-19 01:12:00,34.0,28.8,29.57,ESE,112,13.0,26.0,81,0.00,,,0.00,meteohub,2013-01-19 01:12:00,
2013-01-19 01:18:00,34.0,28.4,29.57,ESE,112,24.0,26.0,80,0.00,,,0.00,meteohub,2013-01-19 01:18:00,
2013-01-19 01:23:00,34.0,28.2,29.57,ESE,112,17.0,26.0,79,0.00,,,0.00,meteohub,2013-01-19 01:23:00,
2013-01-19 01:28:00,34.0,28.2,29.57,East,90,11.0,26.0,79,0.00,,,0.00,meteohub,2013-01-19 01:28:00,
2013-01-19 01:33:00,34.0,28.2,29.57,ESE,112,13.0,26.0,79,0.00,,,0.00,meteohub,2013-01-19 01:33:00,
2013-01-19 01:38:00,34.0,28.2,29.57,ESE,112,11.0,25.0,79,0.00,,,0.00,meteohub,2013-01-19 01:38:00,
2013-01-19 01:43:00,34.0,28.2,29.57,East,90,20.0,22.0,79,0.00,,,0.00,meteohub,2013-01-19 01:43:00,
2013-01-19 01:48:00,34.0,28.2,29.57,East,90,15.0,20.0,79,0.00,,,0.00,meteohub,2013-01-19 01:48:00,
2013-01-19 01:53:00,34.2,28.0,29.57,East,90,15.0,21.0,78,0.01,,,0.01,meteohub,2013-01-19 01:53:00,
2013-01-19 01:58:00,34.2,28.0,29.57,East,90,13.0,21.0,78,0.01,,,0.01,meteohub,2013-01-19 01:58:00,
2013-01-19 02:03:00,34.2,28.0,29.57,East,90,13.0,21.0,78,0.01,,,0.01,meteohub,2013-01-19 02:03:00,
2013-01-19 02:08:00,34.2,28.0,29.57,ESE,112,11.0,21.0,78,0.01,,,0.01,meteohub,2013-01-19 02:08:00,
2013-01-19 02:13:00,34.2,27.7,29.57,East,90,15.0,19.0,77,0.01,,,0.01,meteohub,2013-01-19 02:13:00,
2013-01-19 02:18:00,34.2,27.7,29.57,East,90,11.0,17.0,77,0.01,,,0.01,meteohub,2013-01-19 02:18:00,
2013-01-19 02:23:00,34.2,27.7,29.57,East,90,11.0,17.0,77,0.01,,,0.01,meteohub,2013-01-19 02:23:00,
2013-01-19 02:28:00,34.2,27.7,29.57,East,90,15.0,17.0,77,0.01,,,0.01,meteohub,2013-01-19 02:28:00,
2013-01-19 02:34:00,34.2,27.7,29.57,East,90,11.0,18.0,77,0.01,,,0.01,meteohub,2013-01-19 02:34:00,
2013-01-19 02:39:00,34.2,27.7,29.57,East,90,13.0,18.0,77,0.01,,,0.01,meteohub,2013-01-19 02:39:00,
2013-01-19 02:44:00,34.2,27.5,29.57,East,90,15.0,18.0,76,0.01,,,0.01,meteohub,2013-01-19 02:44:00,
2013-01-19 02:49:00,34.2,27.5,29.57,East,90,13.0,18.0,76,0.01,,,0.01,meteohub,2013-01-19 02:49:00,
2013-01-19 02:54:00,34.0,27.3,29.57,East,90,11.0,19.0,76,0.00,,,0.01,meteohub,2013-01-19 02:54:00,
2013-01-19 02:59:00,34.0,27.3,29.57,East,90,11.0,19.0,76,0.00,,,0.01,meteohub,2013-01-19 02:59:00,
2013-01-19 03:05:00,34.0,27.0,29.57,ENE,68,19.0,19.0,75,0.00,,,0.01,meteohub,2013-01-19 03:05:00,
2013-01-19 03:10:00,34.0,27.0,29.57,East,90,11.0,23.0,75,0.00,,,0.01,meteohub,2013-01-19 03:10:00,
2013-01-19 03:15:00,34.0,27.0,29.57,East,90,8.0,23.0,75,0.00,,,0.01,meteohub,2013-01-19 03:15:00,
2013-01-19 03:20:00,34.0,26.6,29.57,East,90,15.0,23.0,74,0.00,,,0.01,meteohub,2013-01-19 03:20:00,
2013-01-19 03:25:00,34.0,26.6,29.57,East,90,14.0,16.0,74,0.00,,,0.01,meteohub,2013-01-19 03:25:00,
2013-01-19 03:30:00,34.0,26.6,29.57,East,90,13.0,17.0,74,0.00,,,0.01,meteohub,2013-01-19 03:30:00,
2013-01-19 03:35:00,34.0,26.6,29.57,East,90,8.0,17.0,74,0.00,,,0.01,meteohub,2013-01-19 03:35:00,
2013-01-19 03:40:00,34.0,26.6,29.57,East,90,13.0,17.0,74,0.00,,,0.01,meteohub,2013-01-19 03:40:00,
2013-01-19 03:46:00,34.0,26.6,29.57,East,90,11.0,17.0,74,0.00,,,0.01,meteohub,2013-01-19 03:46:00,
2013-01-19 03:51:00,34.0,26.6,29.57,East,90,9.0,15.0,74,0.00,,,0.01,meteohub,2013-01-19 03:51:00,
2013-01-19 03:56:00,34.0,26.6,29.57,ESE,112,13.0,18.0,74,0.00,,,0.01,meteohub,2013-01-19 03:56:00,
2013-01-19 04:01:00,34.2,26.8,29.57,ESE,112,11.0,18.0,74,0.00,,,0.01,meteohub,2013-01-19 04:01:00,
2013-01-19 04:06:00,34.3,26.6,29.57,East,90,14.0,20.0,73,0.00,,,0.01,meteohub,2013-01-19 04:06:00,
2013-01-19 04:11:00,34.3,27.0,29.57,East,90,9.0,20.0,74,0.00,,,0.01,meteohub,2013-01-19 04:11:00,
2013-01-19 04:17:00,34.3,27.0,29.57,East,90,12.0,23.0,74,0.00,,,0.01,meteohub,2013-01-19 04:17:00,
2013-01-19 04:22:00,34.3,27.0,29.60,ENE,68,11.0,23.0,74,0.00,,,0.01,meteohub,2013-01-19 04:22:00,
2013-01-19 04:27:00,34.3,27.0,29.60,East,90,13.0,23.0,74,0.00,,,0.01,meteohub,2013-01-19 04:27:00,
2013-01-19 04:32:00,34.3,27.0,29.60,ESE,112,16.0,18.0,74,0.00,,,0.01,meteohub,2013-01-19 04:32:00,
2013-01-19 04:37:00,34.3,27.0,29.57,East,90,10.0,17.0,74,0.00,,,0.01,meteohub,2013-01-19 04:37:00,
2013-01-19 04:42:00,34.3,26.6,29.57,ESE,112,15.0,22.0,73,0.00,,,0.01,meteohub,2013-01-19 04:42:00,
2013-01-19 04:47:00,34.3,27.0,29.57,ESE,112,12.0,22.0,74,0.00,,,0.01,meteohub,2013-01-19 04:47:00,
2013-01-19 04:52:00,34.3,27.0,29.57,East,90,13.0,22.0,74,0.00,,,0.01,meteohub,2013-01-19 04:52:00,
2013-01-19 04:58:00,34.3,26.6,29.57,East,90,9.0,20.0,73,0.00,,,0.01,meteohub,2013-01-19 04:58:00,
2013-01-19 05:02:00,34.3,26.6,29.57,East,90,12.0,17.0,73,0.00,,,0.01,meteohub,2013-01-19 05:02:00,
2013-01-19 05:05:00,34.3,26.6,29.57,East,90,6.0,17.0,73,0.00,,,0.01,meteohub,2013-01-19 05:05:00,
2013-01-19 05:07:00,34.3,26.6,29.57,East,90,10.0,16.0,73,0.00,,,0.01,meteohub,2013-01-19 05:07:00,
2013-01-19 05:12:00,34.2,26.4,29.57,East,90,7.0,16.0,73,0.00,,,0.01,meteohub,2013-01-19 05:12:00,
2013-01-19 05:17:00,34.0,25.9,29.57,East,90,10.0,14.0,72,0.00,,,0.01,meteohub,2013-01-19 05:17:00,
2013-01-19 05:18:00,34.0,25.9,29.57,East,90,10.0,14.0,72,0.00,,,0.01,meteohub,2013-01-19 05:18:00,
2013-01-19 05:23:00,33.6,25.5,29.57,East,90,13.0,13.0,72,0.00,,,0.01,meteohub,2013-01-19 05:23:00,
2013-01-19 05:28:00,33.6,25.3,29.57,East,90,10.0,13.0,71,0.00,,,0.01,meteohub,2013-01-19 05:28:00,
2013-01-19 05:33:00,33.4,25.2,29.57,East,90,13.0,13.0,71,0.00,,,0.01,meteohub,2013-01-19 05:33:00,
2013-01-19 05:38:00,33.4,25.3,29.57,East,90,8.0,13.0,72,0.00,,,0.01,meteohub,2013-01-19 05:38:00,
2013-01-19 05:43:00,33.3,25.2,29.57,East,90,11.0,14.0,72,0.00,,,0.01,meteohub,2013-01-19 05:43:00,
2013-01-19 05:48:00,33.3,25.2,29.57,East,90,8.0,14.0,72,0.00,,,0.01,meteohub,2013-01-19 05:48:00,
2013-01-19 05:53:00,33.1,25.0,29.57,East,90,7.0,14.0,72,0.00,,,0.01,meteohub,2013-01-19 05:53:00,
2013-01-19 05:58:00,32.9,25.0,29.57,East,90,9.0,11.0,72,0.00,,,0.01,meteohub,2013-01-19 05:58:00,
2013-01-19 06:03:00,32.9,25.0,29.57,East,90,7.0,11.0,72,0.00,,,0.01,meteohub,2013-01-19 06:03:00,
2013-01-19 06:08:00,32.7,24.8,29.57,East,90,8.0,11.0,72,0.00,,,0.01,meteohub,2013-01-19 06:08:00,
2013-01-19 06:14:00,32.7,24.8,29.57,ENE,68,8.0,11.0,72,0.00,,,0.01,meteohub,2013-01-19 06:14:00,
2013-01-19 06:19:00,32.7,24.8,29.57,East,90,6.0,11.0,72,0.00,,,0.01,meteohub,2013-01-19 06:19:00,
2013-01-19 06:25:00,32.5,24.6,29.57,ENE,68,9.0,11.0,72,0.00,,,0.01,meteohub,2013-01-19 06:25:00,
2013-01-19 06:30:00,32.5,24.6,29.57,East,90,9.0,11.0,72,0.00,,,0.01,meteohub,2013-01-19 06:30:00,
2013-01-19 06:35:00,32.5,24.6,29.57,ENE,68,7.0,11.0,72,0.00,,,0.01,meteohub,2013-01-19 06:35:00,
2013-01-19 06:40:00,32.4,24.4,29.57,ENE,68,7.0,11.0,72,0.00,,,0.01,meteohub,2013-01-19 06:40:00,
2013-01-19 06:45:00,32.5,24.6,29.57,East,90,9.0,12.0,72,0.00,,,0.01,meteohub,2013-01-19 06:45:00,
2013-01-19 06:50:00,32.4,24.4,29.60,NE,45,8.0,12.0,72,0.00,,,0.01,meteohub,2013-01-19 06:50:00,
2013-01-19 06:55:00,32.4,24.4,29.60,ENE,68,8.0,12.0,72,0.00,,,0.01,meteohub,2013-01-19 06:55:00,
2013-01-19 07:00:00,32.2,24.3,29.60,ENE,68,5.0,10.0,72,0.00,,,0.01,meteohub,2013-01-19 07:00:00,
2013-01-19 07:05:00,32.0,24.1,29.60,NE,45,8.0,10.0,72,0.00,,,0.01,meteohub,2013-01-19 07:05:00,
2013-01-19 07:11:00,31.8,23.9,29.60,NE,45,8.0,10.0,72,0.00,,,0.01,meteohub,2013-01-19 07:11:00,
2013-01-19 07:16:00,31.6,24.1,29.60,NE,45,6.0,10.0,73,0.00,,,0.01,meteohub,2013-01-19 07:16:00,
2013-01-19 07:21:00,31.5,23.9,29.60,NE,45,6.0,10.0,73,0.00,,,0.01,meteohub,2013-01-19 07:21:00,
2013-01-19 07:26:00,31.3,23.9,29.60,NE,45,8.0,10.0,74,0.00,,,0.01,meteohub,2013-01-19 07:26:00,
2013-01-19 07:31:00,31.1,23.7,29.60,NE,45,6.0,10.0,74,0.00,,,0.01,meteohub,2013-01-19 07:31:00,
2013-01-19 07:37:00,31.1,24.1,29.60,NE,45,5.0,10.0,75,0.00,,,0.01,meteohub,2013-01-19 07:37:00,
2013-01-19 07:42:00,31.3,24.6,29.60,ENE,68,9.0,11.0,76,0.00,,,0.01,meteohub,2013-01-19 07:42:00,
2013-01-19 07:47:00,31.6,25.3,29.63,ENE,68,11.0,11.0,77,0.00,,,0.01,meteohub,2013-01-19 07:47:00,
2013-01-19 07:53:00,32.0,25.9,29.63,ENE,68,6.0,11.0,78,0.00,,,0.01,meteohub,2013-01-19 07:53:00,
2013-01-19 07:58:00,32.4,26.2,29.63,ENE,68,6.0,12.0,78,0.00,,,0.01,meteohub,2013-01-19 07:58:00,
2013-01-19 08:03:00,32.7,27.0,29.60,ENE,68,9.0,12.0,79,0.00,,,0.01,meteohub,2013-01-19 08:03:00,
2013-01-19 08:08:00,32.9,27.1,29.60,East,90,8.0,13.0,79,0.00,,,0.01,meteohub,2013-01-19 08:08:00,
2013-01-19 08:13:00,33.1,27.3,29.60,East,90,8.0,14.0,79,0.00,,,0.01,meteohub,2013-01-19 08:13:00,
2013-01-19 08:18:00,33.1,27.0,29.63,East,90,6.0,14.0,78,0.00,,,0.01,meteohub,2013-01-19 08:18:00,
2013-01-19 08:24:00,33.1,27.0,29.63,ENE,68,8.0,14.0,78,0.00,,,0.01,meteohub,2013-01-19 08:24:00,
2013-01-19 08:29:00,32.9,26.8,29.63,ENE,68,7.0,13.0,78,0.00,,,0.01,meteohub,2013-01-19 08:29:00,
2013-01-19 08:34:00,32.9,26.8,29.60,East,90,6.0,12.0,78,0.00,,,0.01,meteohub,2013-01-19 08:34:00,
2013-01-19 08:39:00,33.1,27.3,29.60,ENE,68,9.0,12.0,79,0.00,,,0.01,meteohub,2013-01-19 08:39:00,
2013-01-19 08:44:00,33.3,27.9,29.60,East,90,10.0,12.0,80,0.00,,,0.01,meteohub,2013-01-19 08:44:00,
2013-01-19 08:49:00,33.3,28.0,29.60,ENE,68,10.0,12.0,81,0.00,,,0.01,meteohub,2013-01-19 08:49:00,
2013-01-19 08:55:00,33.4,28.6,29.60,East,90,15.0,15.0,82,0.00,,,0.01,meteohub,2013-01-19 08:55:00,
2013-01-19 09:00:00,33.6,28.8,29.60,East,90,8.0,15.0,82,0.00,,,0.01,meteohub,2013-01-19 09:00:00,
2013-01-19 09:05:00,33.6,28.9,29.63,ENE,68,11.0,15.0,83,0.00,,,0.01,meteohub,2013-01-19 09:05:00,
2013-01-19 09:10:00,33.6,29.3,29.63,ENE,68,8.0,13.0,84,0.00,,,0.01,meteohub,2013-01-19 09:10:00,
2013-01-19 09:15:00,33.8,29.5,29.63,ENE,68,10.0,13.0,84,0.00,,,0.01,meteohub,2013-01-19 09:15:00,
2013-01-19 09:20:00,33.8,29.5,29.63,East,90,10.0,13.0,84,0.00,,,0.01,meteohub,2013-01-19 09:20:00,
2013-01-19 09:25:00,33.8,29.8,29.63,ENE,68,9.0,11.0,85,0.00,,,0.01,meteohub,2013-01-19 09:25:00,
2013-01-19 09:30:00,33.8,30.0,29.63,ENE,68,7.0,11.0,86,0.00,,,0.01,meteohub,2013-01-19 09:30:00,
2013-01-19 09:35:00,33.8,30.0,29.66,ENE,68,9.0,11.0,86,0.00,,,0.01,meteohub,2013-01-19 09:35:00,
2013-01-19 09:41:00,33.8,30.0,29.66,East,90,10.0,11.0,86,0.00,,,0.01,meteohub,2013-01-19 09:41:00,
2013-01-19 09:46:00,33.8,30.0,29.66,ENE,68,9.0,11.0,86,0.00,,,0.01,meteohub,2013-01-19 09:46:00,
2013-01-19 09:51:00,33.8,30.4,29.66,East,90,9.0,11.0,87,0.00,,,0.01,meteohub,2013-01-19 09:51:00,
2013-01-19 09:57:00,33.8,30.4,29.66,ENE,68,7.0,11.0,87,0.00,,,0.01,meteohub,2013-01-19 09:57:00,
2013-01-19 10:02:00,33.8,30.4,29.66,NE,45,8.0,11.0,87,0.00,,,0.01,meteohub,2013-01-19 10:02:00,
2013-01-19 10:07:00,33.8,30.4,29.66,East,90,9.0,10.0,87,0.00,,,0.01,meteohub,2013-01-19 10:07:00,
2013-01-19 10:12:00,34.0,30.7,29.66,East,90,6.0,9.0,88,0.00,,,0.01,meteohub,2013-01-19 10:12:00,
2013-01-19 10:17:00,34.0,30.7,29.66,East,90,7.0,9.0,88,0.00,,,0.01,meteohub,2013-01-19 10:17:00,
2013-01-19 10:22:00,34.2,30.9,29.66,East,90,6.0,13.0,88,0.00,,,0.01,meteohub,2013-01-19 10:22:00,
2013-01-19 10:27:00,34.3,31.1,29.66,East,90,8.0,13.0,88,0.00,,,0.01,meteohub,2013-01-19 10:27:00,
2013-01-19 10:33:00,34.3,31.1,29.66,East,90,5.0,13.0,88,0.00,,,0.01,meteohub,2013-01-19 10:33:00,
2013-01-19 10:38:00,34.5,31.1,29.66,East,90,10.0,13.0,87,0.00,,,0.01,meteohub,2013-01-19 10:38:00,
2013-01-19 10:43:00,34.5,31.1,29.66,East,90,11.0,13.0,87,0.00,,,0.01,meteohub,2013-01-19 10:43:00,
2013-01-19 10:48:00,34.3,30.9,29.66,East,90,10.0,15.0,87,0.00,,,0.01,meteohub,2013-01-19 10:48:00,
2013-01-19 10:53:00,34.3,30.6,29.66,East,90,8.0,15.0,86,0.00,,,0.01,meteohub,2013-01-19 10:53:00,
2013-01-19 10:58:00,34.3,30.6,29.66,ESE,112,13.0,15.0,86,0.00,,,0.01,meteohub,2013-01-19 10:58:00,
2013-01-19 11:03:00,34.5,30.7,29.66,East,90,8.0,13.0,86,0.00,,,0.01,meteohub,2013-01-19 11:03:00,
2013-01-19 11:08:00,34.5,30.7,29.66,ESE,112,8.0,14.0,86,0.00,,,0.01,meteohub,2013-01-19 11:08:00,
2013-01-19 11:14:00,34.7,30.7,29.66,East,90,11.0,14.0,85,0.00,,,0.01,meteohub,2013-01-19 11:14:00,
2013-01-19 12:48:00,36.3,30.7,29.66,East,90,6.0,11.0,80,0.01,,,0.02,meteohub,2013-01-19 12:48:00,
2013-01-19 12:49:00,36.3,30.4,29.66,East,90,9.0,11.0,79,0.01,,,0.02,meteohub,2013-01-19 12:49:00,
2013-01-19 12:51:00,36.3,30.4,29.66,East,90,8.0,11.0,79,0.01,,,0.02,meteohub,2013-01-19 12:51:00,
2013-01-19 12:56:00,36.3,30.2,29.66,East,90,9.0,11.0,78,0.01,,,0.02,meteohub,2013-01-19 12:56:00,
2013-01-19 12:57:00,36.3,30.2,29.66,East,90,6.0,11.0,78,0.01,,,0.02,meteohub,2013-01-19 12:57:00,
2013-01-19 13:03:00,36.5,30.4,29.66,East,90,10.0,11.0,78,0.01,,,0.02,meteohub,2013-01-19 13:03:00,
2013-01-19 13:08:00,36.7,30.6,29.66,East,90,6.0,11.0,78,0.01,,,0.02,meteohub,2013-01-19 13:08:00,
2013-01-19 13:14:00,36.7,30.6,29.66,East,90,6.0,11.0,78,0.01,,,0.02,meteohub,2013-01-19 13:14:00,
2013-01-19 13:19:00,36.7,30.6,29.66,ENE,68,5.0,11.0,78,0.01,,,0.02,meteohub,2013-01-19 13:19:00,
2013-01-19 13:24:00,37.0,31.1,29.66,ENE,68,9.0,9.0,79,0.01,,,0.02,meteohub,2013-01-19 13:24:00,
2013-01-19 13:29:00,37.2,31.1,29.66,ENE,68,10.0,10.0,78,0.00,,,0.02,meteohub,2013-01-19 13:29:00,
2013-01-19 13:34:00,37.4,31.1,29.66,ENE,68,10.0,11.0,78,0.00,,,0.02,meteohub,2013-01-19 13:34:00,
2013-01-19 13:39:00,37.4,30.9,29.66,ENE,68,10.0,12.0,77,0.00,,,0.02,meteohub,2013-01-19 13:39:00,
2013-01-19 13:44:00,37.2,30.4,29.66,NE,45,13.0,13.0,76,0.00,,,0.02,meteohub,2013-01-19 13:44:00,
2013-01-19 13:50:00,36.9,29.7,29.69,ENE,68,12.0,15.0,75,0.00,,,0.02,meteohub,2013-01-19 13:50:00,
2013-01-19 13:55:00,36.3,29.1,29.69,ENE,68,10.0,17.0,75,0.00,,,0.02,meteohub,2013-01-19 13:55:00,
2013-01-19 14:00:00,36.1,28.9,29.69,East,90,8.0,17.0,75,0.00,,,0.02,meteohub,2013-01-19 14:00:00,
2013-01-19 14:05:00,36.0,29.1,29.69,ENE,68,6.0,13.0,76,0.00,,,0.02,meteohub,2013-01-19 14:05:00,
2013-01-19 14:10:00,35.8,28.9,29.69,ENE,68,6.0,11.0,76,0.00,,,0.02,meteohub,2013-01-19 14:10:00,
2013-01-19 14:15:00,35.6,28.8,29.69,ENE,68,13.0,13.0,76,0.00,,,0.02,meteohub,2013-01-19 14:15:00,
2013-01-19 14:20:00,35.4,28.9,29.69,East,90,9.0,13.0,77,0.00,,,0.02,meteohub,2013-01-19 14:20:00,
2013-01-19 14:25:00,35.4,28.9,29.69,East,90,5.0,13.0,77,0.00,,,0.02,meteohub,2013-01-19 14:25:00,
2013-01-19 14:31:00,35.2,28.8,29.69,East,90,6.0,13.0,77,0.00,,,0.02,meteohub,2013-01-19 14:31:00,
2013-01-19 14:36:00,35.2,28.8,29.69,ENE,68,6.0,12.0,77,0.00,,,0.02,meteohub,2013-01-19 14:36:00,
2013-01-19 14:41:00,35.2,29.1,29.69,East,90,5.0,11.0,78,0.00,,,0.02,meteohub,2013-01-19 14:41:00,
2013-01-19 14:46:00,35.2,29.1,29.69,East,90,11.0,11.0,78,0.00,,,0.02,meteohub,2013-01-19 14:46:00,
2013-01-19 14:51:00,35.4,29.3,29.69,ENE,68,10.0,13.0,78,0.00,,,0.02,meteohub,2013-01-19 14:51:00,
2013-01-19 14:56:00,35.8,29.7,29.69,NE,45,12.0,21.0,78,0.00,,,0.02,meteohub,2013-01-19 14:56:00,
2013-01-19 15:01:00,35.8,29.8,29.69,ENE,68,13.0,21.0,79,0.00,,,0.02,meteohub,2013-01-19 15:01:00,
2013-01-19 15:06:00,35.6,29.8,29.69,ENE,68,8.0,21.0,79,0.00,,,0.02,meteohub,2013-01-19 15:06:00,
2013-01-19 15:12:00,35.4,29.8,29.69,ENE,68,6.0,20.0,80,0.00,,,0.02,meteohub,2013-01-19 15:12:00,
2013-01-19 15:17:00,35.2,29.7,29.69,ENE,68,10.0,17.0,80,0.00,,,0.02,meteohub,2013-01-19 15:17:00,
2013-01-19 15:22:00,35.1,29.8,29.69,ENE,68,15.0,17.0,81,0.00,,,0.02,meteohub,2013-01-19 15:22:00,
2013-01-19 15:27:00,34.9,30.0,29.69,ENE,68,6.0,17.0,82,0.00,,,0.02,meteohub,2013-01-19 15:27:00,
2013-01-19 15:32:00,34.7,30.0,29.69,ENE,68,10.0,15.0,83,0.00,,,0.02,meteohub,2013-01-19 15:32:00,
2013-01-19 15:37:00,34.5,29.8,29.69,NE,45,10.0,15.0,83,0.00,,,0.02,meteohub,2013-01-19 15:37:00,
2013-01-19 15:42:00,34.3,30.0,29.69,NE,45,11.0,13.0,84,0.00,,,0.02,meteohub,2013-01-19 15:42:00,
2013-01-19 15:48:00,34.3,30.6,29.69,ENE,68,10.0,14.0,86,0.00,,,0.02,meteohub,2013-01-19 15:48:00,
2013-01-19 15:53:00,34.3,30.9,29.72,ENE,68,6.0,14.0,87,0.00,,,0.02,meteohub,2013-01-19 15:53:00,
2013-01-19 15:58:00,34.0,30.6,29.72,NE,45,12.0,16.0,87,0.00,,,0.02,meteohub,2013-01-19 15:58:00,
2013-01-19 16:03:00,33.8,30.4,29.69,ENE,68,8.0,16.0,87,0.00,,,0.02,meteohub,2013-01-19 16:03:00,
2013-01-19 16:08:00,33.8,30.4,29.69,ENE,68,9.0,16.0,87,0.00,,,0.02,meteohub,2013-01-19 16:08:00,
2013-01-19 16:13:00,34.0,30.7,29.69,ENE,68,11.0,13.0,88,0.00,,,0.02,meteohub,2013-01-19 16:13:00,
2013-01-19 16:18:00,34.0,31.1,29.72,ENE,68,8.0,16.0,89,0.01,,,0.03,meteohub,2013-01-19 16:18:00,
2013-01-19 16:23:00,34.0,31.3,29.72,East,90,11.0,16.0,90,0.01,,,0.03,meteohub,2013-01-19 16:23:00,
2013-01-19 16:28:00,34.0,31.3,29.72,ENE,68,12.0,17.0,90,0.01,,,0.03,meteohub,2013-01-19 16:28:00,
2013-01-19 16:33:00,34.0,31.3,29.72,ENE,68,15.0,17.0,90,0.01,,,0.03,meteohub,2013-01-19 16:33:00,
2013-01-19 16:39:00,33.6,31.1,29.72,ENE,68,17.0,17.0,90,0.01,,,0.03,meteohub,2013-01-19 16:39:00,
2013-01-19 16:44:00,33.6,31.1,29.72,ENE,68,8.0,17.0,90,0.01,,,0.03,meteohub,2013-01-19 16:44:00,
2013-01-19 16:49:00,33.4,30.9,29.69,ENE,68,10.0,17.0,90,0.01,,,0.03,meteohub,2013-01-19 16:49:00,
2013-01-19 16:54:00,33.6,31.1,29.69,ENE,68,14.0,17.0,90,0.02,,,0.04,meteohub,2013-01-19 16:54:00,
2013-01-19 16:59:00,33.8,31.1,29.69,ENE,68,11.0,15.0,90,0.02,,,0.04,meteohub,2013-01-19 16:59:00,
2013-01-19 17:04:00,33.8,31.5,29.72,East,90,16.0,18.0,91,0.02,,,0.04,meteohub,2013-01-19 17:04:00,
2013-01-19 17:10:00,33.8,31.5,29.72,NE,45,10.0,18.0,91,0.02,,,0.04,meteohub,2013-01-19 17:10:00,
2013-01-19 17:15:00,33.8,31.5,29.72,East,90,6.0,17.0,91,0.01,,,0.04,meteohub,2013-01-19 17:15:00,
2013-01-19 17:21:00,33.8,31.5,29.72,ENE,68,13.0,16.0,91,0.01,,,0.04,meteohub,2013-01-19 17:21:00,
2013-01-19 17:26:00,33.8,31.5,29.72,East,90,10.0,16.0,91,0.01,,,0.04,meteohub,2013-01-19 17:26:00,
2013-01-19 17:32:00,33.8,31.5,29.72,East,90,6.0,13.0,91,0.01,,,0.04,meteohub,2013-01-19 17:32:00,
2013-01-19 17:38:00,33.6,31.3,29.72,East,90,6.0,13.0,91,0.01,,,0.04,meteohub,2013-01-19 17:38:00,
2013-01-19 17:43:00,33.8,31.5,29.72,East,90,9.0,11.0,91,0.01,,,0.04,meteohub,2013-01-19 17:43:00,
2013-01-19 17:48:00,33.8,31.5,29.72,East,90,9.0,11.0,91,0.01,,,0.04,meteohub,2013-01-19 17:48:00,
2013-01-19 17:54:00,33.8,31.5,29.72,East,90,12.0,13.0,91,0.00,,,0.04,meteohub,2013-01-19 17:54:00,
2013-01-19 18:00:00,33.8,31.5,29.72,ESE,112,13.0,13.0,91,0.00,,,0.04,meteohub,2013-01-19 18:00:00,
2013-01-19 18:09:00,33.8,31.5,29.72,East,90,8.0,17.0,91,0.00,,,0.04,meteohub,2013-01-19 18:09:00,
2013-01-19 18:17:00,33.8,31.5,29.72,ESE,112,9.0,17.0,91,0.00,,,0.04,meteohub,2013-01-19 18:17:00,
2013-01-19 18:23:00,33.8,31.5,29.72,East,90,10.0,13.0,91,0.00,,,0.04,meteohub,2013-01-19 18:23:00,
2013-01-19 18:28:00,33.8,31.5,29.72,East,90,9.0,13.0,91,0.00,,,0.04,meteohub,2013-01-19 18:28:00,
2013-01-19 18:34:00,33.8,31.5,29.72,East,90,7.0,15.0,91,0.00,,,0.04,meteohub,2013-01-19 18:34:00,
2013-01-19 18:39:00,33.8,31.5,29.72,East,90,5.0,15.0,91,0.00,,,0.04,meteohub,2013-01-19 18:39:00,
2013-01-19 18:46:00,33.8,31.5,29.72,East,90,3.0,13.0,91,0.00,,,0.04,meteohub,2013-01-19 18:46:00,
2013-01-19 18:54:00,33.8,31.5,29.72,East,90,4.0,8.0,91,0.00,,,0.04,meteohub,2013-01-19 18:54:00,
2013-01-19 19:02:00,33.8,31.5,29.72,ESE,112,3.0,7.0,91,0.01,,,0.06,meteohub,2013-01-19 19:02:00,
2013-01-19 19:09:00,33.8,31.1,29.72,SSE,158,4.0,6.0,90,0.01,,,0.06,meteohub,2013-01-19 19:09:00,
2013-01-19 19:16:00,33.8,31.1,29.72,ESE,112,4.0,8.0,90,0.01,,,0.06,meteohub,2013-01-19 19:16:00,
2013-01-19 19:22:00,33.8,31.1,29.72,SE,135,5.0,8.0,90,0.01,,,0.06,meteohub,2013-01-19 19:22:00,
2013-01-19 19:30:00,33.8,31.1,29.72,SE,135,9.0,9.0,90,0.01,,,0.06,meteohub,2013-01-19 19:30:00,
2013-01-19 19:36:00,33.8,31.1,29.72,East,90,6.0,13.0,90,0.01,,,0.06,meteohub,2013-01-19 19:36:00,
2013-01-19 19:42:00,33.6,31.1,29.72,NE,45,4.0,13.0,90,0.01,,,0.06,meteohub,2013-01-19 19:42:00,
2013-01-19 19:47:00,33.6,31.1,29.72,East,90,5.0,13.0,90,0.01,,,0.06,meteohub,2013-01-19 19:47:00,
2013-01-19 19:52:00,33.4,31.1,29.72,ENE,68,5.0,6.0,91,0.01,,,0.06,meteohub,2013-01-19 19:52:00,
2013-01-19 19:59:00,33.4,31.1,29.72,NE,45,5.0,6.0,91,0.01,,,0.06,meteohub,2013-01-19 19:59:00,
2013-01-19 20:07:00,33.4,31.1,29.72,NE,45,4.0,6.0,91,0.00,,,0.06,meteohub,2013-01-19 20:07:00,
2013-01-19 20:13:00,33.4,31.1,29.72,ENE,68,6.0,6.0,91,0.00,,,0.06,meteohub,2013-01-19 20:13:00,
2013-01-19 20:18:00,33.6,31.3,29.72,East,90,15.0,15.0,91,0.00,,,0.06,meteohub,2013-01-19 20:18:00,
2013-01-19 20:27:00,33.6,31.6,29.72,East,90,11.0,19.0,92,0.00,,,0.06,meteohub,2013-01-19 20:27:00,
2013-01-19 20:32:00,33.4,31.5,29.72,East,90,12.0,19.0,92,0.00,,,0.06,meteohub,2013-01-19 20:32:00,
2013-01-19 20:38:00,33.6,31.6,29.72,East,90,16.0,17.0,92,0.00,,,0.06,meteohub,2013-01-19 20:38:00,
2013-01-19 20:43:00,33.4,31.5,29.72,SE,135,15.0,19.0,92,0.00,,,0.06,meteohub,2013-01-19 20:43:00,
2013-01-19 20:50:00,33.3,31.3,29.72,ESE,112,13.0,21.0,92,0.00,,,0.06,meteohub,2013-01-19 20:50:00,
2013-01-19 20:55:00,32.9,31.1,29.72,ENE,68,9.0,21.0,93,0.00,,,0.06,meteohub,2013-01-19 20:55:00,
2013-01-19 21:02:00,32.9,31.1,29.72,ENE,68,10.0,21.0,93,0.00,,,0.06,meteohub,2013-01-19 21:02:00,
2013-01-19 21:07:00,32.7,31.1,29.72,ENE,68,7.0,12.0,94,0.00,,,0.06,meteohub,2013-01-19 21:07:00,
2013-01-19 21:13:00,32.7,31.1,29.72,East,90,4.0,11.0,94,0.00,,,0.06,meteohub,2013-01-19 21:13:00,
2013-01-19 21:18:00,32.7,31.5,29.72,East,90,6.0,11.0,95,0.00,,,0.06,meteohub,2013-01-19 21:18:00,
2013-01-19 21:24:00,32.9,31.6,29.72,ESE,112,5.0,10.0,95,0.00,,,0.06,meteohub,2013-01-19 21:24:00,
2013-01-19 21:32:00,32.9,31.6,29.72,East,90,4.0,8.0,95,0.00,,,0.06,meteohub,2013-01-19 21:32:00,
2013-01-19 21:37:00,32.7,31.5,29.72,East,90,4.0,8.0,95,0.00,,,0.06,meteohub,2013-01-19 21:37:00,
2013-01-19 21:44:00,32.9,31.3,29.72,East,90,4.0,7.0,94,0.00,,,0.06,meteohub,2013-01-19 21:44:00,
2013-01-19 21:50:00,33.1,31.8,29.72,ENE,68,6.0,10.0,95,0.00,,,0.06,meteohub,2013-01-19 21:50:00,
2013-01-19 21:59:00,33.1,31.8,29.72,ENE,68,4.0,10.0,95,0.00,,,0.06,meteohub,2013-01-19 21:59:00,
2013-01-19 22:05:00,33.1,31.8,29.72,NE,45,4.0,6.0,95,0.00,,,0.06,meteohub,2013-01-19 22:05:00,
2013-01-19 22:11:00,33.1,31.8,29.72,ENE,68,6.0,8.0,95,0.00,,,0.06,meteohub,2013-01-19 22:11:00,
2013-01-19 22:16:00,33.1,31.8,29.72,East,90,6.0,8.0,95,0.00,,,0.06,meteohub,2013-01-19 22:16:00,
2013-01-19 22:24:00,33.1,31.8,29.72,East,90,6.0,7.0,95,0.00,,,0.06,meteohub,2013-01-19 22:24:00,
2013-01-19 22:29:00,33.3,31.6,29.72,SE,135,6.0,7.0,94,0.00,,,0.06,meteohub,2013-01-19 22:29:00,
2013-01-19 22:35:00,33.3,31.6,29.72,SE,135,4.0,7.0,94,0.00,,,0.06,meteohub,2013-01-19 22:35:00,
2013-01-19 22:40:00,33.1,31.5,29.72,East,90,5.0,7.0,94,0.00,,,0.06,meteohub,2013-01-19 22:40:00,
2013-01-19 22:45:00,33.1,31.5,29.72,East,90,8.0,8.0,94,0.00,,,0.06,meteohub,2013-01-19 22:45:00,
2013-01-19 22:52:00,33.1,31.5,29.69,ESE,112,6.0,7.0,94,0.00,,,0.06,meteohub,2013-01-19 22:52:00,
2013-01-19 22:57:00,33.1,31.5,29.69,East,90,4.0,8.0,94,0.00,,,0.06,meteohub,2013-01-19 22:57:00,
2013-01-19 23:02:00,33.1,31.5,29.69,East,90,6.0,8.0,94,0.00,,,0.06,meteohub,2013-01-19 23:02:00,
2013-01-19 23:08:00,33.1,31.5,29.72,NE,45,4.0,8.0,94,0.00,,,0.06,meteohub,2013-01-19 23:08:00,
2013-01-19 23:13:00,33.1,31.5,29.72,ENE,68,6.0,6.0,94,0.00,,,0.06,meteohub,2013-01-19 23:13:00,
2013-01-19 23:19:00,32.9,31.3,29.69,East,90,5.0,8.0,94,0.00,,,0.06,meteohub,2013-01-19 23:19:00,
2013-01-19 23:24:00,32.9,31.1,29.69,East,90,3.0,8.0,93,0.00,,,0.06,meteohub,2013-01-19 23:24:00,
2013-01-19 23:29:00,33.1,31.3,29.69,East,90,6.0,8.0,93,0.00,,,0.06,meteohub,2013-01-19 23:29:00,
2013-01-19 23:35:00,33.3,31.5,29.69,East,90,6.0,10.0,93,0.00,,,0.06,meteohub,2013-01-19 23:35:00,
2013-01-19 23:40:00,33.3,31.5,29.69,ENE,68,6.0,10.0,93,0.00,,,0.06,meteohub,2013-01-19 23:40:00,
2013-01-19 23:45:00,33.3,31.5,29.69,NE,45,6.0,10.0,93,0.00,,,0.06,meteohub,2013-01-19 23:45:00,
2013-01-19 23:50:00,33.3,31.5,29.69,NE,45,7.0,13.0,93,0.00,,,0.06,meteohub,2013-01-19 23:50:00,
2013-01-19 23:55:00,33.3,31.3,29.69,ENE,68,7.0,13.0,92,0.00,,,0.06,meteohub,2013-01-19 23:55:00,